CAPE
3 1 0 19 25 2 6 15 5 0 0 0 0 0 0 0 0 0 0 0 0 0 0 0 0 0 0 0 0 0 0 0 0 0 0 0 0 0 0 0 0 0 0 0 0 0 0
3 1 5 6 40 18 4 13 8 0 0 0 0 0 0 0 0 0 0 0 0 0 0 0 0 0 0 0 0 0 0 0 0 0 0 0 0 0 0 0 0 0 0 0 0 0 0
3 4 0 0 32 27 3 7 10 6 0 0 0 0 0 0 0 0 0 0 0 0 0 0 0 0 0 0 0 0 0 0 0 0 0 0 0 0 0 0 0 0 0 0 0 0 0
6 5 2 3 0 38 18 4 14 10 0 0 0 0 0 0 0 0 0 0 0 0 0 0 0 0 0 0 0 0 0 0 0 0 0 0 0 0 0 0 0 0 0 0 0 0 0
5 6 4 0 0 23 11 4 5 7 6 0 0 0 0 0 0 0 0 0 0 0 0 0 0 0 0 0 0 0 0 0 0 0 0 0 0 0 0 0 0 0 0 0 0 0 0
1 7 2 3 4 20 7 0 0 4 12 0 0 0 0 0 0 0 0 0 0 0 0 0 0 0 0 0 0 0 0 0 0 0 0 0 0 0 0 0 0 0 0 0 0 0 0
6 0 5 6 1 7 17 17 0 4 5 0 0 0 0 0 0 0 0 0 0 0 0 0 0 0 0 0 0 0 0 0 0 0 0 0 0 0 0 0 0 0 0 0 0 0 0
28 1 0 2 1 11 33 0 0 2 7 9 0 0 0 0 0 0 0 0 0 0 0 0 0 0 0 0 0 0 0 0 0 0 0 0 0 0 0 0 0 0 0 0 0 0 0
23 33 0 4 4 3 49 14 0 0 4 9 0 0 0 0 0 0 0 0 0 0 0 0 0 0 0 0 0 0 0 0 0 0 0 0 0 0 0 0 0 0 0 0 0 0 0
5 3 1 0 3 1 33 10 8 0 0 11 1 0 0 0 0 0 0 0 0 0 0 0 0 0 0 0 0 0 0 0 0 0 0 0 0 0 0 0 0 0 0 0 0 0 0
11 13 28 0 0 0 21 58 9 0 0 0 2 0 0 0 0 0 0 0 0 0 0 0 0 0 0 0 0 0 0 0 0 0 0 0 0 0 0 0 0 0 0 0 0 2 0
13 3 37 0 0 0 2 10 1 0 0 1 0 0 0 0 0 0 0 0 0 0 0 0 0 0 0 0 0 0 0 0 0 0 0 0 0 0 0 0 0 0 0 0 0 1 3
0 2 17 0 0 0 1 28 6 0 0 0 0 0 0 0 0 0 0 0 0 0 0 0 0 0 0 0 0 0 0 0 0 0 0 0 0 0 0 0 0 0 0 0 1 2 0
26 1 0 0 0 0 1 35 3 1 0 0 0 0 0 0 0 0 0 0 0 0 0 0 0 0 0 0 0 0 0 0 0 0 0 0 0 0 0 0 0 0 0 0 0 0 0
22 8 0 0 0 0 0 18 5 2 1 0 0 0 0 0 0 0 0 0 0 0 0 0 0 0 0 0 0 0 0 0 0 0 0 0 0 0 0 0 0 0 0 0 0 0 0
0 9 8 0 0 0 0 11 1 2 1 0 0 0 0 0 0 0 0 0 0 0 0 0 0 0 0 0 0 0 0 0 0 0 0 0 0 0 0 0 0 0 0 0 0 0 0
32 0 6 0 0 0 1 2 2 2 0 0 0 0 0 0 0 0 0 0 0 0 0 0 0 0 0 0 0 0 0 0 0 0 0 0 0 0 0 0 0 0 0 0 0 0 0
46 1 18 2 0 0 2 1 2 2 0 0 0 4 0 0 0 0 0 0 0 0 0 0 0 0 0 0 0 0 0 0 0 0 0 0 0 0 0 0 0 0 0 0 0 0 0
14 0 0 0 0 0 1 1 1 0 0 0 0 0 0 0 0 0 0 0 0 0 0 0 0 0 0 0 0 0 0 0 0 0 0 0 0 0 0 0 0 0 0 0 0 0 0
2 0 0 0 0 0 1 1 3 0 0 0 0 0 0 0 0 0 0 0 0 0 0 0 0 0 0 0 0 0 0 0 0 0 0 0 0 0 0 0 0 0 0 0 0 0 0
0 0 0 0 0 1 2 2 1 0 0 0 0 0 0 0 0 0 0 0 0 0 0 0 0 0 0 0 0 0 0 0 0 0 0 0 0 0 0 0 0 0 0 0 0 0 0
25 0 0 0 0 2 2 2 1 0 0 0 0 0 0 0 0 0 0 0 0 0 0 0 0 0 0 0 0 0 0 0 0 0 0 0 0 0 0 0 0 0 0 0 0 0 0
0 0 0 6 0 1 1 2 0 0 0 0 0 0 0 0 0 0 0 0 0 0 0 0 0 0 0 0 0 0 0 0 0 0 0 0 0 0 0 0 0 0 0 0 0 0 0
24 3 8 1 8 4 2 1 0 0 0 0 0 0 0 0 0 0 0 0 0 0 0 0 0 0 0 0 0 0 0 0 0 0 0 0 0 0 0 0 0 0 0 0 0 0 0
17 0 0 2 20 0 2 1 0 0 0 0 0 0 0 0 0 0 0 0 0 0 0 0 0 0 0 0 0 0 0 0 0 0 0 0 0 0 0 0 0 0 0 0 0 0 0
0 0 0 10 4 2 1 1 1 0 0 0 0 0 0 0 0 0 0 0 0 0 0 0 0 0 0 0 0 0 0 0 0 0 0 0 0 0 0 0 0 0 0 0 0 0 0
0 0 13 16 1 1 1 1 0 0 0 0 0 0 0 0 0 0 0 0 0 0 0 0 0 0 0 0 0 0 0 0 0 0 0 0 0 0 0 0 0 0 0 0 0 0 0
0 1 11 1 1 2 0 0 0 0 0 0 0 0 0 0 0 0 0 0 0 0 0 0 0 0 0 0 0 0 0 0 0 0 0 0 0 0 0 0 0 0 0 0 0 0 0
1 4 0 1 2 2 1 0 0 0 0 0 0 0 0 0 0 0 0 0 0 0 0 0 0 0 0 0 0 0 0 0 0 0 0 0 0 0 0 0 0 0 0 0 0 0 0
CIN
0 0 0 -4 -1 -4 -8 -18 -19 0 0 0 0 0 0 0 0 0 0 0 0 0 0 0 0 0 0 0 0 0 0 0 0 0 0 0 0 0 0 0 0 0 0 0 0 0 0
0 0 -1 -1 -2 -2 -4 -8 -25 -5 0 0 0 0 0 0 0 0 0 0 0 0 0 0 0 0 0 0 0 0 0 0 0 0 0 0 0 0 0 0 0 0 0 0 0 0 0
0 0 0 0 0 -5 -2 -9 -20 -23 0 0 0 0 0 0 0 0 0 0 0 0 0 0 0 0 0 0 0 0 0 0 0 0 0 0 0 0 0 0 0 0 0 0 0 0 0
0 0 0 0 0 -3 -2 -6 -20 -24 -3 0 0 0 0 0 0 0 0 0 0 0 0 0 0 0 0 0 0 0 0 0 0 0 0 0 0 0 0 0 0 0 0 0 0 0 0
0 0 0 0 0 -2 -3 -10 -21 -28 -29 0 0 0 0 0 0 0 0 0 0 0 0 0 0 0 0 0 0 0 0 0 0 0 0 0 0 0 0 0 0 0 0 0 0 0 0
-1 0 0 0 0 -1 -10 0 -2 -25 -30 0 0 0 0 0 0 0 0 0 0 0 0 0 0 0 0 0 0 0 0 0 0 0 0 0 0 0 0 0 0 0 0 0 0 0 0
-1 0 0 0 0 0 -5 -1 -34 -30 -38 -7 0 0 0 0 0 0 0 0 0 0 0 0 0 0 0 0 0 0 0 0 0 0 0 0 0 0 0 0 0 0 0 0 0 0 0
-1 -1 0 0 0 0 -1 -1 0 -29 -41 -49 0 0 0 0 0 0 0 0 0 0 0 0 0 0 0 0 0 0 0 0 0 0 0 0 0 0 0 0 0 0 0 0 0 0 0
-1 -1 0 0 0 0 0 0 0 -19 -42 -46 0 0 0 0 0 0 0 0 0 0 0 0 0 0 0 0 0 0 0 0 0 0 0 0 0 0 0 0 0 0 0 0 0 0 0
-1 -8 -1 0 0 0 -1 0 -2 0 0 -46 -50 0 0 0 0 0 0 0 0 0 0 0 0 0 0 0 0 0 0 0 0 0 0 0 0 0 0 0 0 0 0 0 0 0 0
-5 -6 -1 0 0 0 -1 0 -2 0 0 0 -67 0 0 0 0 0 0 0 0 0 0 0 0 0 0 0 0 0 0 0 0 0 0 0 0 0 0 0 0 0 0 0 0 -1 -1
-2 -6 0 0 0 0 0 -8 -2 0 -8 -38 0 0 0 0 0 0 0 0 0 0 0 0 0 0 0 0 0 0 0 0 0 0 0 0 0 0 0 0 0 0 0 0 -1 -1 -1
-1 -1 0 0 0 0 0 -9 -3 0 0 0 0 0 0 0 0 0 0 0 0 0 0 0 0 0 0 0 0 0 0 0 0 0 0 0 0 0 0 0 0 0 0 0 0 -1 0
-4 -1 -1 -2 0 0 0 -4 -10 0 0 0 0 0 0 0 0 0 0 0 0 0 0 0 0 0 0 0 0 0 0 0 0 0 0 0 0 0 0 0 0 0 0 0 0 0 0
-18 -4 0 0 0 0 0 -14 -18 0 0 0 0 0 0 0 0 0 0 0 0 0 0 0 0 0 0 0 0 0 0 0 0 0 0 0 0 0 0 0 0 0 0 0 0 0 0
0 -3 -1 0 0 0 0 -7 0 0 0 0 0 0 0 0 0 0 0 0 0 0 0 0 0 0 0 0 0 0 0 0 0 0 0 0 0 0 0 0 0 0 0 0 0 0 0
-10 0 -1 0 0 0 0 -29 0 0 0 0 0 0 0 0 0 0 0 0 0 0 0 0 0 0 0 0 0 0 0 0 0 0 0 0 0 0 0 0 0 0 0 0 0 0 0
-11 -2 -1 -8 0 0 0 -9 0 0 0 0 0 -18 0 0 0 0 0 0 0 0 0 0 0 0 0 0 0 0 0 0 0 0 0 0 0 0 0 0 0 0 0 0 0 0 0
-14 0 0 0 0 0 0 0 0 0 0 0 0 0 0 0 0 0 0 0 0 0 0 0 0 0 0 0 0 0 0 0 0 0 0 0 0 0 0 0 0 0 0 0 0 0 0
-7 -1 0 0 0 0 0 0 0 0 0 0 0 0 0 0 0 0 0 0 0 0 0 0 0 0 0 0 0 0 0 0 0 0 0 0 0 0 0 0 0 0 0 0 0 0 0
-2 0 0 0 0 0 0 0 0 0 0 0 0 0 0 0 0 0 0 0 0 0 0 0 0 0 0 0 0 0 0 0 0 0 0 0 0 0 0 0 0 0 0 0 0 0 0
-1 0 0 0 0 0 0 0 0 0 0 0 0 0 0 0 0 0 0 0 0 0 0 0 0 0 0 0 0 0 0 0 0 0 0 0 0 0 0 0 0 0 0 0 0 0 0
-1 0 0 -3 0 0 0 0 0 0 0 0 0 0 0 0 0 0 0 0 0 0 0 0 0 0 0 0 0 0 0 0 0 0 0 0 0 0 0 0 0 0 0 0 0 0 0
0 -2 -3 0 -2 -14 0 0 0 0 0 0 0 0 0 0 0 0 0 0 0 0 0 0 0 0 0 0 0 0 0 0 0 0 0 0 0 0 0 0 0 0 0 0 0 0 0
-1 0 0 0 0 0 0 0 0 0 0 0 0 0 0 0 0 0 0 0 0 0 0 0 0 0 0 0 0 0 0 0 0 0 0 0 0 0 0 0 0 0 0 0 0 0 0
0 0 0 -5 -24 0 0 0 0 0 0 0 0 0 0 0 0 0 0 0 0 0 0 0 0 0 0 0 0 0 0 0 0 0 0 0 0 0 0 0 0 0 0 0 0 0 0
0 0 -2 -6 0 0 0 0 0 0 0 0 0 0 0 0 0 0 0 0 0 0 0 0 0 0 0 0 0 0 0 0 0 0 0 0 0 0 0 0 0 0 0 0 0 0 0
0 0 -4 -7 0 0 0 0 0 0 0 0 0 0 0 0 0 0 0 0 0 0 0 0 0 0 0 0 0 0 0 0 0 0 0 0 0 0 0 0 0 0 0 0 0 0 0
0 -8 -1 0 0 0 0 0 0 0 0 0 0 0 0 0 0 0 0 0 0 0 0 0 0 0 0 0 0 0 0 0 0 0 0 0 0 0 0 0 0 0 0 0 0 0 0
Wind_Speed
42 44 43 40 35 34 33 29 28 27 23 20 14 11 11 6 11 14 14 15 15 17 18 19 21 19 16 18 21 26 30 28 28 27 28 24 25 22 22 19 21 19 20 20 20 20 21
43 42 44 44 38 35 35 31 28 27 26 23 19 13 8 4 0 14 15 15 16 17 18 18 20 16 16 19 22 27 28 26 27 25 25 25 22 20 21 20 22 17 17 19 20 20 20
44 42 43 45 43 38 36 34 31 28 26 26 23 16 11 8 5 3 14 14 17 16 17 17 17 14 17 18 23 27 26 25 25 22 23 24 22 19 18 20 16 15 19 21 22 19 20
46 43 43 45 45 40 35 36 31 29 27 26 25 20 14 10 7 1 8 13 15 15 17 18 16 15 17 18 23 26 25 22 23 21 21 22 21 21 20 16 15 19 19 25 27 21 24
48 46 42 44 46 43 40 37 34 30 27 25 24 22 18 14 9 4 4 9 16 15 17 17 15 15 16 19 24 25 24 21 20 20 21 22 23 23 18 17 20 22 26 25 24 27 23
52 47 43 43 45 44 41 38 36 32 29 26 24 22 20 16 12 7 4 6 10 12 14 15 14 14 17 19 23 24 22 22 18 17 21 23 22 23 26 21 27 26 24 24 25 26 24
53 51 48 41 43 46 42 40 37 35 30 27 24 23 20 18 14 10 5 5 11 14 15 16 15 13 14 18 23 24 23 20 18 19 20 24 23 27 26 24 22 21 23 23 21 22 24
51 53 51 45 42 47 44 41 39 36 32 28 26 23 21 17 15 12 13 11 10 8 10 14 15 15 17 18 20 24 24 18 18 19 18 21 25 23 24 23 22 22 23 24 21 22 21
53 53 51 49 44 45 45 40 40 36 33 30 27 24 20 17 14 15 16 13 7 6 15 16 15 17 18 18 20 22 20 19 21 21 21 22 23 22 22 25 22 23 27 25 24 21 21
52 54 52 52 47 44 47 45 38 38 33 31 28 25 21 16 16 16 16 11 7 11 18 19 18 18 18 14 18 21 20 18 17 18 20 23 24 22 22 26 25 24 25 22 19 20 28
54 54 53 52 49 48 47 48 38 39 33 34 29 26 23 19 15 16 12 7 7 12 26 14 15 14 14 14 13 21 20 20 18 17 17 19 23 24 23 24 26 24 23 22 20 23 25
52 55 52 53 51 50 45 48 42 40 36 35 28 27 24 21 16 14 8 4 7 17 21 12 10 9 11 15 16 17 17 18 19 20 21 20 21 24 23 23 25 20 22 23 23 23 29
52 55 54 52 52 53 45 47 43 42 40 34 31 28 24 21 19 11 8 6 16 18 11 9 7 7 10 13 15 15 16 17 15 16 17 19 23 21 24 21 28 20 20 25 27 29 31
53 56 57 54 54 52 48 49 44 41 40 35 32 28 24 22 15 13 12 12 18 14 10 8 5 5 11 12 14 14 14 15 16 15 13 16 18 22 25 22 23 26 26 25 29 30 30
53 56 57 57 55 55 47 53 52 40 42 38 32 27 26 21 17 18 17 21 16 11 7 2 2 8 12 13 13 13 15 14 14 13 14 14 15 18 22 25 20 23 25 23 24 25 26
54 56 59 60 54 56 51 55 49 43 44 44 33 30 26 22 21 19 22 20 15 9 1 2 10 11 11 8 11 12 12 12 12 12 12 12 15 15 18 19 24 22 22 24 25 29 30
55 59 60 60 62 58 50 55 52 45 47 38 30 29 26 25 21 24 26 19 13 6 2 7 8 9 10 10 10 11 11 9 10 10 11 12 15 14 16 19 20 21 23 24 23 24 28
59 60 64 63 63 59 56 58 54 47 47 39 34 32 28 26 27 27 22 16 12 7 10 10 9 8 6 8 10 10 8 10 9 10 9 12 14 15 16 17 17 19 20 21 23 24 22
61 60 64 61 65 58 60 60 58 52 48 38 35 28 28 29 32 28 20 16 15 9 8 8 9 10 8 6 10 8 8 8 9 9 9 10 12 15 15 15 14 16 17 18 19 20 20
63 65 67 64 63 53 57 61 58 54 48 39 36 34 34 34 29 25 21 19 15 14 11 10 6 7 6 7 9 6 6 6 7 8 9 11 11 13 16 17 17 17 14 15 16 19 19
63 64 64 65 62 52 60 64 60 61 49 40 36 38 33 38 33 26 22 19 14 13 14 7 8 7 3 6 6 6 6 8 6 7 8 10 11 12 14 15 14 13 13 12 12 13 15
64 64 66 63 63 57 64 67 59 61 51 45 42 39 34 30 25 24 23 20 14 11 9 6 5 3 5 5 5 6 10 6 5 5 7 8 11 12 13 13 13 11 9 9 9 10 7
61 66 68 63 63 63 64 66 60 60 56 45 34 28 29 28 29 27 26 17 14 11 14 9 1 6 5 6 7 10 7 6 5 6 7 8 10 12 14 12 14 12 5 8 10 10 11
58 64 64 58 56 63 64 65 63 59 49 42 35 33 32 31 31 28 22 19 13 13 10 7 7 3 5 8 12 11 9 7 5 5 6 8 9 12 14 13 17 15 14 11 9 9 7
60 56 55 55 64 60 64 62 62 57 44 36 38 35 30 31 29 27 23 18 13 8 3 5 1 3 11 9 6 6 7 6 6 4 5 7 8 12 13 11 15 8 8 11 11 12 8
56 53 50 54 55 57 61 60 56 55 44 37 35 28 26 26 33 26 21 18 14 10 6 8 2 11 11 3 4 5 5 5 3 5 4 5 6 8 12 14 16 16 13 13 13 12 11
54 55 58 57 60 59 59 56 55 47 44 37 33 29 26 26 22 25 21 19 15 11 7 3 6 2 1 2 4 6 7 3 3 3 3 3 5 3 7 13 12 10 11 13 15 17 11
53 51 53 53 55 57 56 51 51 46 40 38 31 25 29 26 21 26 23 17 13 12 10 9 2 4 2 3 2 4 6 1 3 5 4 3 6 8 7 12 14 11 12 11 14 14 12
39 49 50 52 52 53 49 48 46 46 38 37 31 20 17 20 21 18 14 14 15 14 7 13 12 6 2 2 4 5 7 3 2 6 2 5 4 9 6 11 13 10 13 8 11 12 11
Wind_Direction
261 255 251 248 243 241 241 236 234 234 232 235 231 231 250 265 282 280 287 301 313 322 324 327 327 335 344 337 333 334 332 339 343 347 348 350 352 351 346 356 6 360 1 8 8 7 4
260 257 250 247 243 240 239 236 231 230 231 232 232 233 221 220 289 275 279 291 303 312 316 324 320 336 340 327 339 336 336 345 347 351 355 359 359 8 358 353 345 7 10 4 4 1 2
258 257 252 246 244 239 238 235 231 228 228 230 231 231 228 239 260 342 281 295 296 311 308 314 319 2 357 339 341 337 341 349 352 358 0 2 3 355 359 3 25 23 5 8 358 354 349
255 255 252 246 241 238 235 230 229 227 224 226 229 229 230 233 251 321 302 287 290 308 311 310 310 333 336 338 333 339 340 357 5 12 12 8 8 13 4 21 6 350 346 334 354 353 351
250 252 252 247 241 238 234 229 228 225 222 220 224 226 229 230 238 257 323 319 275 308 314 299 314 319 331 323 332 336 343 347 2 11 12 7 11 6 7 359 351 349 335 340 344 356 348
246 248 249 248 241 236 233 226 225 223 218 218 218 222 225 228 234 242 291 340 346 337 335 320 1 330 324 332 332 329 343 346 355 3 360 358 5 5 1 349 332 340 342 347 345 352 0
245 243 246 247 243 235 231 230 224 221 216 215 213 215 220 225 229 238 258 316 308 311 333 313 321 348 342 337 347 334 332 348 359 356 357 4 1 352 358 0 1 359 355 352 358 359 358
244 240 241 244 245 233 229 229 221 217 214 210 210 210 213 219 226 235 258 283 304 321 316 352 347 342 339 343 330 335 350 348 359 358 9 5 358 2 6 7 7 5 358 356 2 5 4
241 238 237 238 241 235 227 226 217 211 210 208 206 205 206 211 221 243 255 277 295 333 298 313 323 315 323 355 331 329 354 5 13 15 10 4 358 8 6 5 5 2 355 354 354 10 15
240 237 234 234 238 235 228 224 218 212 209 204 200 197 197 198 230 241 252 265 281 307 289 294 303 317 326 359 341 355 353 352 358 3 4 7 11 11 11 5 4 1 7 11 17 11 355
238 233 232 232 233 232 228 218 215 209 205 200 193 193 191 193 233 231 254 245 281 302 278 313 313 335 349 339 353 345 360 13 2 4 11 8 10 10 10 11 11 11 20 24 26 16 13
236 232 229 229 231 229 235 219 216 206 202 196 190 187 188 220 234 235 217 226 278 281 283 307 324 327 337 349 350 357 9 25 23 32 30 26 31 20 23 22 15 35 32 32 26 21 7
236 230 227 227 228 226 232 213 212 208 201 195 188 183 193 217 226 203 196 228 263 272 292 300 310 328 333 337 346 351 354 354 357 6 12 25 20 32 20 27 26 40 25 13 11 10 9
233 228 225 225 224 225 231 211 208 202 191 185 182 185 213 220 210 192 213 240 265 276 280 306 315 339 322 342 345 351 359 358 2 7 24 7 7 15 13 27 25 27 27 19 12 13 16
232 228 224 223 222 223 227 209 207 195 184 181 176 199 209 214 209 215 218 243 263 272 260 266 8 310 319 333 339 348 348 354 4 12 7 17 13 32 27 26 36 28 26 38 33 33 26
231 225 221 220 220 219 225 206 201 192 181 175 190 196 209 215 215 214 229 245 258 273 233 141 299 310 318 338 345 348 351 358 10 17 24 31 16 27 31 34 27 37 47 29 33 20 19
227 222 219 218 219 218 224 199 196 187 176 177 183 200 209 212 212 217 227 244 254 248 250 291 304 311 323 337 344 347 353 11 23 34 28 35 11 27 32 27 31 32 32 37 40 37 25
221 219 212 212 215 216 217 196 190 183 174 182 196 207 208 208 210 223 222 237 247 223 271 298 312 331 344 353 346 354 9 5 60 62 37 15 19 22 26 36 43 43 40 43 32 31 40
216 215 210 211 207 214 204 193 190 186 178 188 193 205 210 215 215 210 223 230 242 233 259 285 301 318 345 8 350 18 20 32 70 44 39 51 25 20 27 34 52 40 46 47 49 47 38
213 209 207 208 206 218 194 189 187 183 185 189 195 200 205 217 222 206 206 221 232 249 261 282 317 337 8 11 9 24 20 47 62 17 18 37 34 30 19 25 44 38 55 58 52 39 40
208 208 207 206 207 216 192 191 187 185 182 188 203 203 206 207 213 205 210 218 211 238 257 272 298 322 22 10 27 358 61 81 49 44 32 26 34 36 33 41 48 55 53 59 52 50 42
201 204 203 206 209 209 190 191 187 185 188 196 198 203 210 199 195 197 214 217 186 238 238 248 299 105 86 66 10 117 114 90 28 75 51 33 30 35 36 50 50 46 63 65 66 54 58
200 198 198 203 207 191 188 189 184 185 191 199 206 197 199 197 199 205 215 202 206 222 258 267 130 116 88 50 10 93 80 58 10 90 79 46 37 30 22 47 32 30 104 83 60 60 56
198 196 198 203 198 188 188 189 189 192 201 204 201 195 204 205 206 207 207 212 200 230 247 263 131 85 317 66 69 60 51 2 23 42 39 37 43 26 21 33 16 40 64 72 63 59 78
193 195 197 197 190 183 186 187 190 194 202 195 203 203 213 207 208 210 205 211 203 228 237 144 233 332 114 98 57 18 3 348 340 2 25 32 42 16 19 24 17 51 69 59 57 44 72
191 194 199 190 188 183 184 186 189 192 195 198 200 204 209 196 213 203 197 191 188 218 226 264 323 117 115 36 337 323 325 332 16 355 354 27 67 37 21 11 12 31 58 59 53 31 73
191 193 189 186 183 180 181 185 186 189 194 192 197 206 204 208 199 187 202 191 219 216 227 202 138 161 272 355 315 318 317 3 11 67 22 87 37 64 30 9 20 47 62 63 31 29 64
187 194 187 182 175 176 179 182 185 187 190 190 195 207 211 215 208 212 221 213 206 210 193 161 178 264 199 276 290 335 325 341 2 337 2 89 21 15 29 10 11 73 66 42 33 46 54
191 183 183 179 175 176 178 180 185 187 187 189 192 202 203 207 210 219 220 235 241 238 205 164 293 155 292 285 309 324 319 345 327 334 332 357 23 17 57 25 24 116 36 98 53 50 51